RH
39 35 35 40 53 65 62 50 36 26 23 21 22 34 36 61 47 46 56 57 67 48 58 60 56 59 74 74 82 82 89 92 92 55 54 36 30 30 48 83 71 74 66 24 16 18 62 76 71
40 37 38 43 64 69 59 43 35 28 21 38 42 45 60 69 68 68 66 64 65 50 55 65 66 76 80 75 84 91 93 84 68 53 28 39 37 44 69 91 86 78 63 19 14 27 37 65 66
41 39 44 60 72 67 53 35 35 25 22 22 34 50 60 70 67 62 66 68 76 65 52 82 77 79 72 79 77 77 69 68 39 28 31 50 48 57 78 90 84 80 54 18 14 25 38 44 49
42 43 51 74 69 55 44 41 37 29 21 22 43 68 70 69 67 63 63 70 69 67 63 86 80 71 80 83 71 71 46 39 27 22 51 56 60 61 84 88 85 71 46 20 22 20 24 34 35
51 48 74 73 69 57 47 41 38 30 24 23 44 79 77 70 71 69 68 76 72 60 70 94 82 74 81 76 68 62 33 19 23 40 82 86 72 81 85 84 80 54 43 23 28 33 31 30 33
61 51 84 84 70 55 53 43 43 27 22 56 65 77 80 79 73 77 77 79 73 58 75 97 95 89 84 78 73 65 38 17 18 27 87 67 85 84 73 69 62 58 44 25 31 36 38 40 44
67 77 83 78 76 61 49 47 39 34 23 38 56 90 84 83 86 82 80 84 77 63 60 88 93 89 90 87 81 63 51 21 15 15 18 35 77 68 64 58 67 60 47 27 34 39 41 43 48
60 62 86 76 68 64 60 52 47 39 26 46 53 88 84 81 84 88 87 86 83 74 69 62 78 92 98 96 90 67 56 34 20 16 14 16 22 43 52 60 65 62 49 31 34 41 43 45 47
71 80 69 65 66 58 64 64 53 43 38 46 47 64 61 78 81 91 93 90 89 92 88 82 63 83 90 86 83 75 68 54 35 31 17 16 16 17 28 41 41 44 40 33 31 41 43 43 45
88 82 66 50 52 68 73 70 67 57 51 65 77 69 73 76 80 86 91 88 91 88 85 80 77 81 80 79 71 72 67 61 52 45 32 18 18 17 19 26 37 39 37 31 26 34 40 41 44
87 73 60 49 48 68 78 70 62 61 49 33 76 76 75 74 78 80 86 82 73 81 79 74 72 73 74 74 71 67 64 54 47 42 39 33 20 20 19 20 28 33 34 30 25 30 35 40 41
86 68 56 58 64 74 76 69 69 60 54 46 42 67 61 72 71 76 80 83 82 81 75 79 81 79 75 65 61 61 68 64 56 42 37 39 36 22 23 23 24 26 26 25 25 28 36 40 43
68 63 59 74 69 70 71 75 82 62 46 39 38 52 54 61 70 62 71 80 83 83 77 78 82 82 80 78 73 75 73 64 56 48 48 40 42 30 33 45 49 55 54 41 33 32 36 42 46
64 55 64 85 77 78 76 72 69 55 49 45 50 58 51 44 55 72 80 80 80 82 79 78 79 80 79 74 74 74 77 72 62 64 63 61 60 64 60 56 56 58 60 61 60 59 46 50 56
62 72 74 79 70 68 68 89 87 53 50 51 49 63 63 58 56 55 54 57 65 75 78 76 76 77 79 78 76 75 75 77 66 63 69 74 75 74 75 74 69 66 69 72 72 71 72 69 70
73 74 85 67 59 56 78 85 76 60 57 51 33 32 31 30 29 35 55 60 64 69 75 77 80 83 84 83 81 81 79 77 74 68 69 73 77 80 80 80 74 77 77 76 78 78 77 78 80
68 93 81 68 52 59 71 59 58 60 63 54 39 32 30 28 27 27 27 28 34 39 59 73 80 82 82 84 85 85 86 84 83 80 73 74 78 77 82 77 75 82 87 84 81 82 85 81 81
86 83 72 67 55 52 62 49 40 40 45 43 39 35 32 30 28 26 26 26 26 27 34 42 61 77 82 86 92 92 90 89 90 86 79 80 82 85 88 88 86 89 94 92 90 87 86 86 84
66 68 70 55 51 53 54 52 45 40 38 36 33 33 32 32 30 27 27 26 25 25 25 31 38 42 51 72 79 80 75 83 86 84 88 91 92 92 93 94 94 94 94 90 84 90 92 91 91
61 71 72 52 50 51 56 57 48 42 43 36 31 31 31 33 29 26 27 26 25 27 27 27 28 34 36 40 43 49 56 65 65 73 86 89 93 93 91 89 87 84 84 80 78 83 93 93 92
64 71 66 60 50 46 49 57 51 45 46 40 34 31 30 32 30 28 27 28 29 29 29 29 30 32 34 36 37 39 43 46 46 49 52 57 69 78 84 84 86 85 86 85 68 76 88 90 92
72 52 52 56 58 75 48 80 50 50 50 45 37 34 32 31 30 29 28 30 30 30 30 30 30 30 30 30 31 34 36 37 38 39 39 40 42 44 45 47 55 67 70 65 73 72 80 85 86
62 49 55 53 62 58 56 66 55 43 53 46 40 36 34 31 30 29 30 32 32 32 33 32 30 30 32 36 38 38 36 34 33 34 34 35 37 39 40 41 49 59 74 74 74 74 77 82 89
57 62 68 73 72 90 65 64 66 51 44 38 38 34 34 32 32 36 40 41 40 40 40 39 36 36 38 40 41 43 43 41 39 38 37 37 37 36 35 35 37 46 60 72 71 73 89 88 87
59 71 96 95 96 92 65 67 51 42 42 40 38 38 34 38 41 47 47 48 47 46 48 49 48 47 45 44 43 44 44 45 45 45 46 47 48 50 53 53 52 57 68 72 84 86 90 86 86
70 64 89 86 96 81 68 81 58 45 39 36 34 35 36 48 51 51 52 54 55 57 57 56 55 54 52 50 50 50 52 56 60 62 63 63 62 59 56 57 60 61 61 70 83 86 88 89 91
80 93 57 77 72 89 72 60 42 40 41 40 44 44 54 55 55 56 61 62 61 61 61 61 59 58 56 55 55 56 58 60 63 68 69 68 66 64 61 58 56 53 52 53 57 67 80 91 100
83 73 83 91 81 80 68 68 51 41 47 51 61 57 54 53 57 61 61 62 63 64 63 62 64 64 62 62 61 62 63 62 62 61 61 60 59 58 57 56 56 56 53 51 51 57 67 74 81
97 94 82 76 81 80 82 60 46 36 42 54 58 52 49 52 55 59 62 64 65 64 63 65 70 71 69 69 67 65 64 63 60 60 59 58 58 59 62 62 61 58 58 59 58 57 58 62 63
81 81 83 90 85 86 84 69 32 43 42 49 54 48 48 50 55 61 63 64 64 64 65 70 74 75 75 73 73 69 66 63 62 62 62 63 67 72 74 73 70 71 70 67 70 69 70 74 80
Wind_Speed
2 4 3 2 3 4 3 6 3 5 1 2 3 3 7 6 2 4 19 14 22 22 23 22 20 17 15 13 14 12 11 11 9 4 6 5 7 11 14 12 9 8 8 8 6 7 10 10 8
1 2 2 1 4 3 4 4 5 5 1 15 12 6 6 3 2 12 23 18 14 21 23 22 20 18 17 15 15 13 12 11 6 3 7 9 11 14 15 12 8 6 8 8 8 8 11 10 8
5 3 2 3 3 5 4 3 5 8 5 6 5 8 4 3 5 22 13 16 18 20 22 21 20 19 17 16 13 9 9 8 5 7 9 10 12 14 14 11 7 4 7 9 10 10 11 10 8
9 4 4 4 5 5 4 3 6 9 4 6 13 6 5 3 14 10 15 18 17 19 22 22 20 18 17 15 11 8 6 4 10 13 10 12 12 13 12 10 6 4 6 8 10 10 11 10 9
14 5 3 1 5 4 4 8 15 6 10 3 6 5 3 11 9 10 17 15 16 23 22 20 19 17 17 13 10 8 5 6 9 15 12 12 13 12 11 9 7 5 6 7 8 9 9 9 8
5 8 3 4 5 4 6 8 14 4 8 4 7 7 3 8 11 18 15 12 14 21 22 21 18 17 15 13 11 9 7 6 7 11 13 14 13 12 10 9 8 5 4 5 6 7 7 7 6
10 5 6 3 3 4 2 13 5 10 8 3 14 4 7 11 17 19 15 13 14 18 18 18 19 17 14 12 12 12 8 7 7 9 5 7 12 12 11 10 9 6 4 5 6 6 6 6 6
7 5 8 5 5 4 4 11 10 13 5 8 10 6 7 18 21 22 17 14 14 16 14 15 19 18 16 15 14 10 9 7 7 7 7 6 4 6 7 9 8 7 6 6 7 6 6 6 7
7 4 14 12 9 3 4 7 13 16 12 7 6 13 20 22 21 22 21 18 17 15 12 13 18 19 18 15 13 11 10 7 6 5 6 8 8 7 8 8 7 7 5 5 6 6 6 6 8
13 8 12 9 3 2 4 8 12 13 24 6 11 13 27 24 21 23 25 22 21 16 13 12 18 20 17 16 14 13 11 9 8 7 7 8 8 9 10 10 11 9 7 7 7 7 7 6 8
5 20 7 8 6 2 6 7 9 13 7 9 7 28 25 23 21 20 22 19 16 13 13 12 15 18 18 18 15 13 11 9 9 9 8 9 10 10 10 10 10 9 9 9 9 10 9 9 9
10 18 22 7 8 7 4 8 10 8 12 24 19 21 23 22 22 21 22 21 19 16 13 13 14 14 13 15 14 12 11 9 9 9 10 12 11 11 10 9 8 8 8 10 11 12 13 12 12
5 14 20 15 13 6 2 3 6 24 20 22 19 19 21 22 20 19 19 19 19 18 16 16 15 14 13 11 11 11 10 8 7 9 11 12 11 10 11 9 10 8 9 10 12 14 15 15 15
9 9 17 16 11 7 2 5 4 23 13 23 9 20 17 18 18 19 21 20 20 18 17 15 17 16 15 13 12 10 9 7 8 8 8 10 10 9 10 11 12 12 10 9 11 12 15 15 16
8 7 9 13 14 5 6 3 6 37 28 27 9 14 13 14 17 18 16 17 19 20 17 17 15 15 17 15 13 13 10 10 12 11 11 11 11 11 12 12 13 12 13 12 13 15 16 17 18
5 4 5 7 17 7 14 10 17 21 28 26 14 10 12 14 11 11 13 13 13 13 17 18 20 20 18 18 17 16 15 15 15 15 15 15 14 14 15 16 17 14 16 17 18 18 20 21 20
2 5 5 8 18 10 13 5 19 33 30 31 26 15 13 13 12 11 12 12 13 13 16 16 18 19 20 24 22 21 20 20 19 18 18 18 18 18 18 20 19 18 19 21 23 24 24 25 26
14 9 9 9 16 12 20 6 12 23 27 32 36 32 18 15 13 14 13 14 16 16 16 18 21 21 19 20 25 24 25 25 23 22 22 21 22 22 23 23 23 23 24 26 27 28 28 29 30
6 5 10 3 8 15 12 6 5 14 20 25 34 29 26 19 14 15 19 18 18 19 19 18 18 18 19 22 24 23 23 24 23 23 24 26 26 26 28 28 28 28 30 29 29 30 32 32 32
6 6 6 2 6 11 6 9 9 15 15 21 20 18 24 19 14 11 13 16 19 19 18 17 18 20 21 22 24 26 25 25 25 25 26 26 28 30 31 31 30 29 29 30 31 31 33 33 33
2 6 5 5 4 3 3 4 6 12 15 22 22 18 14 20 18 16 15 16 16 16 17 17 18 18 19 20 22 23 25 27 27 27 28 30 31 31 32 32 33 32 32 31 30 30 31 32 32
3 3 5 6 6 4 5 4 6 7 12 9 28 27 23 18 18 17 17 17 17 16 17 17 18 19 22 23 25 26 27 27 27 28 28 29 29 30 31 31 31 30 30 29 26 21 22 23 26
2 3 5 1 3 2 2 1 5 1 7 16 20 29 26 23 24 22 20 18 16 16 16 16 18 19 19 19 18 19 20 23 25 26 27 29 30 32 34 34 32 29 29 27 25 22 21 22 23
5 6 7 5 3 3 5 5 5 6 7 5 19 29 24 25 25 23 20 18 16 14 13 13 14 15 14 14 14 14 14 14 15 16 17 17 18 19 20 22 25 29 29 26 25 24 22 21 21
3 5 2 1 1 4 2 4 11 6 6 6 8 18 25 26 27 25 21 17 14 13 12 11 10 11 13 14 15 16 16 17 17 18 18 18 18 18 17 17 17 20 20 22 24 22 22 21 21
3 4 5 6 4 3 3 8 6 7 8 15 18 18 25 27 25 22 18 14 13 11 9 9 9 10 11 12 14 15 16 16 17 17 18 18 18 19 20 19 18 17 17 19 18 18 18 20 22
3 2 3 5 3 3 5 7 8 8 7 5 11 20 28 27 24 20 16 13 11 9 8 8 9 10 11 11 11 11 12 12 14 15 15 16 16 17 17 18 18 18 18 18 18 18 19 19 17
3 2 2 3 2 4 4 5 7 4 8 4 8 22 28 24 21 19 15 12 10 9 9 9 9 9 9 10 10 9 9 9 10 11 12 13 14 15 16 16 17 17 18 17 17 18 18 19 19
3 2 3 3 4 4 2 5 5 5 8 7 9 25 26 23 21 19 16 12 11 10 10 10 9 9 10 10 11 10 10 10 12 13 14 14 15 15 14 14 15 15 15 15 16 17 17 18 20
7 5 7 4 4 1 2 6 2 6 7 12 15 24 24 21 20 19 16 14 12 12 12 11 11 11 12 13 13 13 12 12 12 12 13 13 13 12 11 12 13 12 12 12 12 13 13 13 12
Wind_Direction
113 270 269 297 66 66 241 259 266 307 273 194 133 168 143 70 144 192 143 157 164 160 162 164 164 161 156 156 149 144 139 143 150 113 98 97 118 130 133 127 120 90 63 56 95 135 152 149 147
175 230 261 112 103 122 258 259 258 248 285 123 100 82 47 71 58 143 143 140 162 165 164 163 162 157 165 161 159 161 155 171 173 126 101 110 121 131 133 136 136 92 54 58 86 111 151 156 155
211 178 168 108 133 187 211 194 290 294 223 191 116 96 75 43 103 148 147 149 162 172 166 161 162 168 166 168 170 181 179 176 159 134 126 120 126 135 138 149 149 100 57 72 88 103 132 148 153
184 142 81 105 224 252 227 317 327 328 265 204 134 72 96 133 143 161 163 156 162 172 168 165 167 171 169 175 179 190 194 167 148 141 130 128 133 142 143 162 160 115 72 87 98 105 120 138 143
168 145 93 179 247 265 275 326 335 300 304 151 161 141 80 162 177 175 163 158 170 167 171 169 175 175 176 182 188 191 175 157 165 151 134 137 140 146 158 164 160 125 84 94 103 107 119 135 138
221 139 114 207 247 262 316 336 327 297 281 151 117 105 106 160 167 155 150 145 166 173 170 169 177 179 182 187 192 193 169 160 166 174 148 157 155 161 161 165 160 139 98 107 117 120 128 143 152
179 132 171 185 257 314 296 341 18 324 275 190 143 87 138 160 154 151 148 144 159 175 179 176 184 184 186 194 199 188 168 161 160 176 182 155 165 170 173 176 175 171 152 148 153 143 145 158 181
223 142 150 200 214 245 12 348 0 18 311 141 136 154 176 167 167 161 157 154 154 164 171 181 185 184 185 193 200 203 183 175 157 172 180 172 198 209 202 197 195 200 194 181 177 168 168 180 195
183 175 209 207 200 195 44 15 354 355 347 304 167 157 170 162 164 168 169 168 166 168 174 188 194 196 195 201 213 207 212 195 194 200 199 195 195 211 217 218 232 234 227 217 205 199 198 202 209
205 193 217 193 184 138 84 46 1 359 332 333 109 141 163 170 174 177 179 179 178 178 183 192 197 202 208 213 222 230 227 226 226 231 227 217 213 216 217 220 223 230 234 239 236 236 233 230 230
217 214 186 223 203 43 350 20 14 355 328 353 307 155 166 174 179 184 185 190 188 186 185 176 188 202 216 222 227 229 230 234 240 243 245 236 229 227 231 230 229 230 239 246 245 248 252 252 248
179 231 202 129 171 232 286 317 345 344 272 311 312 172 171 179 184 190 193 194 194 198 196 186 180 192 209 220 226 228 231 243 250 252 253 244 247 242 239 240 238 242 257 260 259 260 259 258 258
178 179 194 151 156 189 145 294 334 298 291 313 294 191 184 188 189 192 202 204 205 207 204 204 204 203 204 208 212 221 235 249 261 247 251 247 249 245 244 246 252 255 261 268 266 266 267 266 264
172 148 157 150 155 147 148 267 3 276 278 326 230 191 181 179 186 195 204 214 219 217 219 216 220 221 219 220 224 228 244 263 253 242 248 249 246 249 252 254 260 266 273 278 276 276 272 272 266
165 85 92 171 178 161 180 308 228 253 275 287 241 192 191 183 180 185 190 204 222 232 236 236 234 236 239 243 245 246 248 255 254 252 249 255 258 262 269 268 264 267 274 280 282 279 276 275 273
96 85 134 181 156 194 148 234 228 262 269 270 263 223 193 178 174 179 192 191 193 199 222 236 241 247 248 250 254 258 258 259 262 256 254 254 260 268 274 275 276 280 280 281 281 282 279 278 277
185 163 157 159 185 142 171 208 201 222 246 268 265 246 223 209 202 209 209 208 209 208 209 215 225 237 250 252 254 259 263 259 263 263 260 260 263 271 273 280 284 284 284 283 283 282 281 284 285
182 172 183 167 195 186 196 221 175 201 210 238 257 259 231 223 225 219 225 222 220 223 219 217 220 226 233 237 243 251 253 254 257 259 260 262 265 268 268 274 279 279 278 278 278 280 284 285 287
125 101 176 155 178 186 209 188 242 191 205 223 240 239 235 225 234 243 236 238 238 234 233 228 225 225 228 229 231 236 241 245 250 255 257 260 261 261 263 265 270 274 278 283 280 276 276 279 280
143 132 174 126 152 179 170 213 207 231 231 232 233 238 232 227 217 212 209 209 217 224 228 233 235 233 237 238 240 242 243 244 247 248 251 256 257 261 262 264 268 271 275 277 276 277 277 275 276
31 140 162 160 104 46 113 253 195 239 240 246 249 245 241 224 212 204 198 204 213 224 233 237 238 239 240 242 246 247 248 249 250 252 255 259 260 262 265 266 264 266 268 271 278 272 271 277 279
85 195 157 125 148 191 171 266 236 226 238 237 245 244 239 229 208 202 200 204 212 222 235 245 253 256 257 256 252 249 251 253 255 256 258 259 263 266 268 268 267 265 264 267 271 277 273 275 277
187 151 172 109 116 117 256 210 247 228 241 235 237 240 242 234 212 203 204 210 216 227 238 247 254 259 262 264 264 262 261 262 265 266 267 266 264 264 265 266 268 267 264 264 268 268 271 272 277
131 82 51 55 88 263 198 182 236 201 218 224 232 238 223 206 202 198 196 203 214 228 240 245 248 252 254 257 262 264 263 263 265 268 272 274 276 276 274 272 267 262 261 262 262 264 268 273 275
83 87 48 50 262 219 229 209 257 246 242 236 243 233 205 195 188 188 194 201 215 229 236 243 251 258 261 265 268 271 274 274 273 272 272 272 275 277 277 275 272 266 263 259 255 260 265 272 275
142 159 150 190 194 226 127 241 242 239 254 250 257 237 193 186 185 189 195 202 211 222 236 254 270 274 275 276 277 277 277 278 279 279 280 279 277 276 276 279 280 278 274 264 261 259 261 266 269
154 165 186 107 24 56 225 292 295 254 267 245 215 191 182 179 183 189 190 202 217 229 244 271 284 285 284 285 284 282 281 280 280 281 282 282 281 281 281 281 281 281 280 280 278 274 269 266 266
78 270 75 357 140 239 268 271 245 279 270 237 181 180 183 182 184 187 196 210 222 238 261 279 283 284 286 284 282 280 280 282 283 284 285 286 288 288 287 285 282 279 276 274 274 272 273 274 275
160 204 204 148 156 186 256 257 219 260 264 212 191 184 184 186 188 194 201 210 226 245 262 267 272 282 286 282 277 275 278 283 286 287 287 289 290 289 290 289 288 285 282 278 274 272 273 277 279
224 212 181 158 226 211 153 269 259 282 260 186 188 190 189 191 195 199 205 215 230 247 255 257 263 273 280 278 270 269 274 281 287 288 290 290 289 287 290 296 294 288 284 278 274 272 273 280 287